Dewpoint
-35 -35 -34 -35 -35 -34 -33 -30 -28 -28 -29 -27 -26 -28 -27 -25 -25 -34 -19 -6 -5 -8 -17 -16 -18 -23 -17 -15 -12 -5 -6 -10 -12 -12 -9 -8 -8 -6 -5 -3 -3 -8 -8 1 2
-35 -35 -35 -34 -34 -33 -33 -29 -26 -28 -28 -28 -30 -29 -28 -23 -20 -27 -17 -18 -14 -19 -13 -14 -18 -18 -19 -20 -15 -12 -10 -11 -10 -11 -12 -12 -13 -12 -10 -8 -2 -4 -4 1 0
-35 -35 -35 -33 -33 -34 -33 -31 -24 -27 -28 -28 -29 -29 -29 -22 -20 -25 -31 -30 -20 -14 -13 -17 -19 -19 -18 -19 -21 -19 -15 -19 -20 -18 -18 -17 -16 -16 -15 -11 -7 -3 -0 -1 -1
-35 -35 -35 -34 -33 -33 -31 -30 -25 -27 -26 -26 -27 -29 -28 -16 -22 -25 -32 -28 -15 -12 -15 -15 -18 -19 -18 -18 -18 -18 -21 -22 -20 -19 -17 -15 -16 -17 -17 -17 -15 -14 -11 -8 -5
-35 -35 -35 -34 -33 -31 -29 -29 -25 -28 -27 -25 -25 -29 -24 -26 -22 -23 -30 -24 -15 -13 -16 -16 -18 -17 -16 -19 -19 -16 -18 -19 -17 -15 -14 -16 -15 -14 -14 -11 -9 -10 -12 -12 -8
-34 -35 -35 -34 -32 -29 -28 -26 -25 -28 -28 -25 -27 -27 -25 -24 -21 -24 -24 -17 -16 -14 -14 -16 -17 -18 -19 -20 -17 -20 -18 -17 -17 -18 -17 -15 -13 -13 -8 -6 -7 -12 -13 -11 -2
-34 -34 -35 -34 -32 -29 -27 -25 -25 -28 -28 -26 -28 -26 -25 -24 -19 -21 -20 -17 -17 -14 -15 -15 -16 -19 -18 -18 -19 -18 -18 -19 -21 -20 -19 -16 -14 -6 -8 -6 -6 -7 -7 -6 -5
-35 -34 -35 -35 -31 -28 -26 -25 -26 -27 -28 -27 -24 -17 -17 -27 -18 -21 -21 -20 -17 -18 -15 -16 -18 -19 -20 -19 -18 -19 -19 -18 -20 -19 -20 -16 -12 -8 -9 -7 -6 -8 -9 -8 -7
-34 -34 -35 -35 -31 -28 -25 -24 -25 -25 -25 -28 -18 -19 -21 -21 -20 -20 -24 -20 -18 -17 -18 -18 -20 -19 -21 -17 -15 -18 -14 -15 -17 -19 -18 -16 -13 -10 -11 -10 -8 -7 -8 -8 -8
-35 -34 -35 -34 -31 -28 -24 -24 -25 -26 -24 -25 -24 -17 -20 -20 -23 -20 -21 -20 -20 -18 -17 -22 -22 -21 -18 -16 -11 -11 -11 -14 -14 -18 -18 -17 -9 -11 -11 -10 -10 -8 -8 -9 -8
-35 -34 -35 -34 -29 -27 -23 -23 -12 -13 -20 -19 -20 -20 -20 -19 -23 -19 -19 -19 -22 -23 -18 -20 -21 -17 -15 -19 -15 -14 -12 -12 -16 -19 -17 -17 -16 -9 -10 -11 -10 -9 -10 -9 -9
-35 -34 -34 -32 -28 -27 -23 -14 -19 -17 -16 -21 -20 -17 -18 -20 -20 -19 -19 -21 -22 -21 -21 -19 -19 -20 -18 -20 -18 -15 -13 -15 -17 -17 -15 -14 -6 -9 -11 -10 -10 -10 -10 -9 -9
-36 -34 -34 -30 -27 -27 -24 -20 -19 -23 -17 -16 -18 -17 -20 -18 -19 -18 -19 -19 -21 -22 -21 -19 -22 -21 -18 -21 -16 -16 -15 -14 -12 -13 -15 -15 -12 -10 -8 -11 -12 -11 -10 -10 -9
-36 -35 -33 -30 -23 -27 -23 -20 -22 -24 -13 -15 -18 -16 -16 -16 -18 -17 -19 -18 -22 -20 -19 -21 -23 -19 -17 -18 -16 -14 -18 -15 -12 -10 -5 -8 -4 -10 -11 -11 -12 -12 -12 -11 -10
-36 -35 -32 -31 -27 -25 -25 -18 -18 -17 2 -18 -17 -21 -17 -19 -19 -19 -19 -18 -19 -19 -20 -20 -20 -17 -17 -17 -17 -16 -17 -15 -11 -9 -8 -7 -7 -9 -13 -11 -11 -11 -13 -12 -11
-36 -35 -31 -29 -29 -24 -24 -14 -12 -1 4 -16 -18 -18 -18 -18 -18 -20 -19 -18 -17 -18 -20 -17 -19 -18 -17 -17 -18 -15 -15 -13 -10 -8 -4 -11 -9 -7 -10 -10 -11 -13 -13 -12 -11
-33 -34 -31 -27 -27 -25 -21 -13 -1 2 -20 -16 -18 -19 -18 -19 -19 -19 -16 -13 -14 -9 -13 -16 -16 -18 -16 -16 -20 -13 -12 -8 -6 -7 -8 -11 -8 -8 -12 -12 -13 -12 -13 -13 -12
-30 -33 -27 -26 -28 -25 -19 -13 -4 -15 -21 -18 -19 -20 -18 -19 -19 -19 -16 -14 -17 -13 -10 -11 -10 -14 -13 -13 -12 -12 -11 -11 -9 -8 -11 -14 -7 -7 -12 -15 -15 -15 -14 -13 -12
-25 -27 -24 -23 -28 -27 -14 -5 -6 -16 -20 -21 -21 -19 -19 -19 -19 -20 -14 -13 -15 -14 -11 -12 -13 -14 -14 -14 -15 -13 -11 -13 -11 -12 -10 -8 -10 -11 -17 -16 -16 -16 -14 -14 -12
-22 -23 -19 -23 -25 -27 -14 -9 -13 -17 -18 -19 -22 -20 -19 -20 -19 -19 -13 -15 -15 -17 -16 -10 -11 -15 -16 -13 -13 -14 -13 -10 -11 -11 -11 -13 -12 -10 -13 -14 -15 -14 -14 -14 -13
-23 -14 -21 -27 -27 -15 -10 -13 -15 -16 -18 -20 -22 -23 -21 -19 -18 -18 -12 -15 -19 -17 -16 -13 -11 -12 -16 -14 -13 -14 -15 -13 -12 -12 -12 -13 -11 -13 -14 -14 -13 -13 -14 -14 -14
-22 -14 -23 -26 -16 -22 -18 -18 -16 -16 -16 -17 -20 -22 -21 -19 -18 -19 -17 -18 -19 -18 -17 -15 -12 -10 -10 -14 -13 -12 -12 -13 -12 -12 -13 -12 -13 -11 -13 -13 -14 -14 -13 -14 -13
-18 -16 -20 -28 -16 -17 -20 -18 -18 -17 -18 -19 -19 -19 -18 -18 -16 -20 -20 -19 -18 -18 -14 -16 -13 -11 -8 -12 -15 -13 -13 -13 -13 -13 -12 -12 -16 -12 -14 -15 -15 -15 -14 -14 -13
-14 -10 -17 -22 -24 -17 -17 -20 -19 -18 -19 -19 -20 -18 -17 -17 -19 -16 -19 -18 -17 -17 -14 -15 -16 -17 -15 -14 -16 -16 -13 -14 -13 -12 -13 -12 -13 -14 -14 -13 -15 -15 -15 -14 -16
-20 -13 -20 -16 -19 -20 -15 -17 -20 -18 -19 -19 -20 -19 -16 -15 -20 -19 -19 -19 -17 -16 -14 -18 -12 -16 -16 -17 -18 -18 -17 -15 -13 -13 -14 -14 -13 -13 -13 -12 -14 -15 -15 -16 -17
-18 -14 -15 -19 -19 -21 -16 -16 -19 -19 -18 -18 -17 -21 -19 -15 -14 -13 -19 -19 -19 -15 -15 -17 -13 -15 -14 -19 -20 -20 -21 -20 -16 -13 -13 -13 -12 -14 -15 -15 -15 -15 -15 -17 -18
-27 -24 -19 -13 -17 -14 -16 -19 -21 -22 -20 -20 -19 -20 -20 -19 -17 -18 -19 -19 -19 -18 -17 -16 -14 -13 -12 -19 -18 -16 -18 -19 -18 -16 -14 -15 -14 -18 -16 -18 -18 -16 -15 -15 -17
Wind_Speed
14 15 14 13 14 14 13 12 11 12 11 9 10 15 15 6 11 34 36 28 26 25 23 21 17 16 6 5 5 5 6 11 18 19 14 17 12 14 21 22 19 16 11 6 16
13 14 14 13 14 14 13 11 10 11 10 9 8 13 16 5 4 27 28 27 24 24 22 22 24 17 7 7 5 5 8 10 11 10 15 20 19 21 18 23 21 21 14 8 19
13 13 12 12 13 14 13 9 8 8 8 8 9 14 17 5 2 18 28 26 23 23 17 18 19 9 9 8 12 8 7 17 18 18 22 24 27 24 24 20 23 21 21 19 21
14 13 13 12 13 15 13 7 5 5 5 5 7 13 10 4 4 24 25 22 21 20 19 13 21 9 5 8 11 8 15 17 23 24 27 23 29 27 28 29 33 34 30 25 23
12 14 13 12 13 14 12 7 4 2 8 8 3 13 8 14 12 22 21 20 18 16 24 15 26 13 8 13 16 4 13 22 25 26 26 24 21 23 26 20 26 27 26 25 23
12 13 14 13 12 12 10 7 2 2 7 7 4 8 12 9 16 17 18 17 17 14 15 23 17 7 7 13 5 18 21 21 20 21 17 19 21 24 20 25 23 27 26 22 13
13 13 13 13 12 11 10 6 2 1 6 5 6 3 19 11 14 16 15 13 15 11 14 14 12 21 13 10 16 14 18 12 18 17 17 18 16 11 17 21 17 18 15 14 15
14 13 13 13 12 11 9 5 2 2 6 8 5 6 5 13 14 22 14 11 11 11 9 9 12 12 19 19 3 12 6 16 17 13 14 14 13 11 17 19 20 19 17 17 17
15 12 12 12 10 10 7 3 1 2 4 8 7 2 4 10 15 23 9 13 6 5 10 10 11 12 21 18 1 10 16 21 16 21 10 11 17 12 17 16 18 21 19 19 19
14 12 12 11 9 8 6 0 5 3 2 3 6 2 5 6 14 21 11 10 8 5 3 11 11 10 15 15 11 20 21 16 22 16 14 17 6 8 15 17 18 20 21 21 22
15 13 11 10 8 8 3 2 3 1 8 8 6 3 4 7 6 21 15 5 8 8 4 3 13 17 18 16 15 16 17 20 19 21 11 14 16 4 10 18 21 23 23 25 26
15 13 12 10 7 7 4 5 8 5 5 4 3 4 4 5 5 21 16 3 7 11 10 4 16 14 14 15 18 17 18 20 18 19 15 15 4 3 8 14 19 23 27 28 29
17 14 12 11 7 7 6 6 5 9 1 2 1 2 4 3 4 14 17 5 5 9 7 9 8 13 14 17 20 19 16 24 19 19 10 11 11 3 4 9 18 21 23 25 27
16 14 12 10 5 10 6 4 7 5 4 6 3 1 3 1 0 9 16 3 3 6 3 3 7 12 13 15 18 16 24 20 13 11 4 2 1 7 5 10 16 23 26 27 28
14 14 11 9 8 8 9 3 6 3 4 3 3 1 1 1 5 6 10 2 6 4 5 3 7 12 12 14 16 13 25 15 9 7 7 3 7 6 7 13 17 19 25 26 26
22 16 10 8 9 9 6 3 5 2 3 2 1 1 4 3 3 8 5 7 1 2 1 2 2 5 6 17 7 22 20 6 6 5 5 8 5 8 8 13 17 20 24 25 26
20 16 11 8 8 8 1 6 3 4 3 2 1 2 2 4 1 7 5 8 6 6 7 7 3 2 9 11 4 19 17 4 3 2 6 8 5 3 8 11 13 17 22 24 24
20 14 9 8 8 5 2 3 5 2 3 2 1 3 1 5 2 4 2 2 6 4 4 5 1 4 6 4 7 9 6 4 6 7 11 8 4 3 5 10 16 17 18 21 23
21 13 8 4 5 3 3 3 3 3 2 2 3 3 3 2 2 4 2 2 2 7 5 6 1 4 3 2 7 6 6 2 5 11 6 2 2 3 8 11 16 19 20 22 23
17 10 6 3 2 1 4 2 0 2 2 1 2 1 3 4 4 4 1 3 2 2 2 2 7 3 3 2 3 4 2 2 2 7 7 7 9 4 11 14 14 16 20 22 23
13 2 2 4 2 2 2 1 2 2 1 2 1 2 3 4 2 3 2 4 2 3 2 2 1 2 3 1 2 0 1 2 2 2 4 7 3 2 4 9 13 15 18 20 22
4 2 2 4 3 2 1 2 3 3 1 1 2 2 2 2 4 3 3 2 4 2 5 2 3 6 2 3 2 2 2 1 3 1 4 4 8 2 4 8 15 16 17 19 19
8 2 3 2 3 2 2 1 1 3 4 3 3 4 0 2 3 4 3 1 7 3 2 2 3 6 4 2 3 5 4 0 1 1 6 4 6 4 5 12 16 15 15 18 19
6 2 1 2 2 3 2 2 2 3 2 2 1 3 2 4 6 3 4 2 6 6 2 2 4 8 7 12 9 9 6 8 4 3 2 10 16 18 13 14 18 15 15 16 18
3 2 1 2 1 1 1 3 4 4 4 7 4 10 5 3 4 4 4 4 6 4 5 3 5 10 15 20 18 17 16 10 11 9 7 4 8 17 15 14 18 15 16 15 17
4 5 6 5 2 3 3 5 6 3 7 5 6 0 10 6 3 4 3 4 5 6 5 3 4 9 8 7 6 12 15 14 15 14 17 19 22 15 14 10 14 15 15 15 16
7 6 4 2 2 1 2 1 2 4 7 1 8 3 8 10 7 8 8 10 8 5 7 3 4 5 5 2 14 13 12 17 9 10 7 7 10 7 9 11 14 12 13 14 13
Wind_Direction
28 24 19 21 12 15 15 15 23 26 26 35 38 20 11 13 26 6 22 355 346 346 359 351 359 11 37 32 355 301 258 275 293 304 321 16 350 314 322 299 271 259 269 341 338
26 24 14 15 10 9 8 13 23 31 36 47 43 16 4 10 20 15 2 360 359 0 358 359 1 13 52 11 15 292 271 294 345 345 325 319 320 315 312 306 281 253 247 319 335
19 16 15 9 7 1 -0 6 21 38 51 50 24 11 13 39 55 358 1 4 10 8 6 12 2 17 39 48 11 341 279 326 315 319 314 306 302 300 296 286 279 331 326 323 326
7 7 7 8 0 356 355 359 18 36 20 353 8 10 21 33 17 345 359 6 8 10 19 22 28 49 47 8 345 304 304 314 313 309 306 300 300 291 285 283 284 293 294 302 304
3 3 2 3 359 358 2 4 23 36 10 2 15 20 42 50 14 346 1 8 12 18 29 29 30 19 35 338 329 314 330 312 303 301 300 306 293 288 284 304 299 298 292 291 289
353 355 357 357 358 1 6 8 24 52 9 30 17 49 50 79 9 357 4 12 18 22 31 40 31 14 2 331 348 327 311 299 301 303 323 301 315 291 335 335 317 295 283 291 318
352 349 351 353 353 360 3 11 33 52 17 32 47 19 45 58 14 5 11 18 23 33 38 37 36 42 353 346 331 317 314 310 314 336 312 328 297 22 349 348 345 349 341 332 322
352 349 349 350 349 354 3 24 87 83 25 21 349 39 84 29 19 12 18 20 32 40 38 46 48 36 25 341 310 335 298 330 331 327 316 327 296 18 6 360 359 339 333 333 327
349 347 344 345 346 350 359 26 45 293 339 19 23 85 48 8 5 4 12 19 11 27 39 36 19 27 8 5 18 352 323 322 320 321 325 311 299 19 9 3 4 351 343 341 339
345 341 342 340 338 342 350 37 39 356 318 24 31 94 32 338 3 355 354 20 18 343 329 25 28 25 11 11 351 321 320 313 310 318 310 301 307 21 15 13 5 357 350 350 348
342 337 338 337 326 340 335 239 322 31 74 82 62 66 350 333 348 358 0 3 21 31 10 38 25 16 356 348 336 317 314 308 320 317 294 294 301 25 17 17 9 0 353 355 350
340 334 333 334 316 339 308 259 244 182 119 97 74 44 4 9 339 356 12 37 13 25 356 39 27 2 342 336 340 328 315 328 311 320 303 285 184 105 25 25 10 1 358 354 349
335 332 329 332 321 323 309 279 246 168 215 139 98 26 354 18 35 354 7 351 12 24 22 61 12 351 344 344 345 337 352 329 312 315 254 246 241 46 39 7 7 6 357 354 352
330 329 324 331 318 327 317 303 172 166 255 140 153 321 334 198 353 8 7 336 37 354 349 65 3 358 337 347 343 321 348 320 308 322 350 179 10 37 27 357 5 358 355 352 351
328 323 316 320 314 324 319 270 194 144 283 77 116 203 39 2 326 20 7 20 26 358 308 42 338 349 341 343 329 303 324 303 295 291 295 354 284 61 18 353 348 353 349 347 348
329 323 313 304 316 324 331 146 158 217 248 121 127 313 260 25 38 341 6 18 347 281 190 318 308 334 344 319 2 336 325 234 240 257 238 14 317 63 9 335 333 343 343 344 346
330 320 313 302 312 324 3 131 260 234 135 118 204 342 306 351 59 16 18 32 19 340 6 310 190 347 345 330 339 1 359 358 277 320 327 21 289 56 351 334 335 336 338 340 346
327 319 310 295 307 318 157 227 254 47 38 102 242 266 305 3 110 354 301 27 49 342 294 337 238 15 356 42 312 0 6 31 301 343 315 303 335 65 333 329 346 341 339 342 346
330 320 302 277 301 298 218 252 334 18 40 343 224 287 154 150 311 319 30 0 7 359 2 336 282 130 55 25 341 346 28 1 279 242 272 10 145 175 359 358 350 348 347 345 344
330 318 299 292 297 240 247 280 284 46 99 269 326 319 316 0 310 332 326 136 168 337 333 82 288 136 110 181 72 25 4 258 269 334 321 320 292 306 357 350 345 346 345 341 341
330 301 293 321 318 225 262 25 128 122 18 305 307 276 271 319 301 301 314 167 222 152 298 187 268 145 184 168 19 327 28 0 283 301 318 315 354 108 342 342 335 331 337 337 337
358 306 277 325 267 245 270 35 118 165 198 240 275 270 272 330 276 266 274 244 179 199 303 111 301 271 345 83 49 289 294 282 309 347 306 263 279 162 320 319 317 329 330 334 337
339 297 282 295 283 184 133 202 232 180 210 190 228 245 140 257 275 236 259 114 181 228 312 141 199 294 194 150 171 231 175 229 59 242 239 292 296 162 285 316 329 322 330 332 335
337 299 261 188 266 310 205 209 217 225 216 197 233 202 203 240 224 284 255 190 207 235 238 224 265 248 269 302 315 283 184 198 208 262 285 243 280 296 317 325 324 314 327 328 331
336 318 301 290 123 309 264 185 182 219 218 204 221 225 199 275 232 230 228 228 199 235 213 254 267 279 278 281 283 276 273 225 201 229 245 308 288 289 302 305 307 305 314 321 329
338 336 328 289 287 255 197 216 220 172 173 213 229 298 212 233 251 295 281 226 276 179 214 198 276 309 290 280 296 275 269 252 230 231 254 264 277 272 277 292 302 303 311 318 323
327 311 298 228 201 211 240 308 270 183 195 221 219 224 232 254 286 285 252 262 263 215 218 237 298 322 274 290 300 275 251 223 217 201 205 236 279 315 290 306 310 310 309 313 315
Height
1551 1549 1547 1546 1543 1542 1540 1537 1535 1533 1531 1530 1528 1527 1525 1524 1522 1518 1509 1522 1516 1509 1503 1501 1499 1494 1494 1495 1495 1494 1486 1468 1461 1462 1461 1472 1475 1470 1469 1467 1461 1458 1459 1461 1460
1551 1550 1548 1546 1544 1542 1539 1538 1536 1533 1532 1531 1530 1528 1525 1523 1523 1521 1524 1518 1513 1507 1503 1499 1495 1494 1495 1496 1496 1494 1482 1473 1485 1486 1484 1483 1485 1481 1476 1470 1460 1458 1460 1461 1460
1553 1550 1548 1547 1544 1542 1540 1538 1537 1535 1533 1532 1531 1529 1526 1523 1526 1527 1522 1517 1513 1508 1506 1504 1500 1496 1496 1498 1501 1498 1488 1485 1488 1489 1491 1488 1485 1483 1479 1474 1468 1463 1461 1463 1463
1554 1551 1549 1547 1545 1542 1540 1538 1537 1536 1535 1533 1532 1531 1527 1526 1530 1528 1522 1518 1514 1512 1508 1505 1501 1498 1500 1502 1504 1503 1496 1496 1494 1493 1491 1488 1486 1482 1481 1476 1472 1468 1466 1465 1463
1554 1552 1549 1547 1544 1542 1539 1538 1536 1536 1534 1533 1533 1531 1529 1530 1536 1530 1524 1519 1516 1515 1511 1506 1504 1504 1505 1508 1505 1498 1500 1501 1497 1494 1490 1486 1483 1478 1475 1474 1470 1467 1466 1465 1463
1554 1551 1549 1547 1544 1541 1539 1537 1536 1536 1535 1533 1533 1533 1531 1533 1537 1530 1525 1521 1518 1518 1514 1510 1511 1510 1509 1508 1505 1505 1503 1498 1493 1491 1488 1485 1481 1478 1477 1477 1471 1466 1465 1464 1461
1555 1552 1549 1546 1544 1541 1538 1536 1535 1536 1535 1535 1534 1533 1532 1538 1536 1530 1526 1523 1521 1520 1518 1515 1514 1514 1512 1508 1507 1504 1497 1491 1488 1486 1487 1484 1479 1484 1485 1479 1472 1468 1464 1464 1462
1554 1551 1549 1546 1544 1541 1539 1536 1536 1536 1536 1535 1534 1535 1537 1537 1534 1530 1527 1525 1523 1522 1520 1517 1516 1515 1513 1512 1503 1498 1494 1492 1489 1488 1487 1486 1477 1486 1485 1482 1479 1475 1469 1466 1463
1554 1551 1548 1546 1544 1541 1539 1537 1536 1536 1536 1536 1537 1537 1541 1538 1537 1532 1528 1525 1522 1523 1521 1518 1516 1515 1513 1508 1498 1503 1506 1498 1490 1487 1485 1486 1479 1484 1486 1484 1481 1479 1474 1469 1464
1553 1550 1548 1546 1544 1542 1539 1538 1536 1534 1536 1536 1538 1540 1541 1541 1537 1535 1528 1525 1524 1522 1522 1518 1516 1515 1517 1514 1521 1515 1508 1499 1490 1483 1481 1483 1482 1484 1488 1486 1484 1481 1477 1471 1464
1553 1550 1547 1545 1544 1542 1541 1539 1541 1539 1536 1540 1543 1542 1543 1540 1537 1535 1529 1527 1524 1523 1520 1520 1517 1521 1523 1519 1517 1513 1505 1496 1485 1486 1484 1479 1478 1485 1488 1487 1484 1482 1477 1470 1464
1551 1549 1547 1544 1542 1542 1541 1540 1538 1538 1539 1539 1540 1542 1541 1539 1539 1536 1531 1530 1525 1523 1518 1514 1523 1527 1525 1519 1515 1507 1500 1493 1489 1486 1485 1479 1477 1484 1487 1488 1486 1482 1474 1470 1464
1551 1548 1546 1544 1542 1540 1539 1538 1535 1536 1538 1542 1540 1542 1543 1541 1540 1538 1535 1532 1530 1525 1525 1523 1531 1529 1524 1516 1515 1505 1499 1501 1497 1483 1473 1476 1471 1481 1486 1487 1485 1483 1480 1474 1467
1550 1547 1545 1543 1543 1541 1539 1536 1536 1537 1533 1539 1540 1542 1543 1540 1540 1539 1536 1536 1529 1528 1527 1525 1528 1528 1523 1519 1517 1502 1501 1499 1493 1486 1474 1475 1466 1477 1483 1483 1483 1482 1478 1473 1467
1547 1545 1544 1541 1541 1540 1540 1538 1538 1538 1522 1541 1540 1539 1540 1542 1541 1540 1538 1535 1533 1531 1528 1526 1528 1528 1522 1522 1516 1507 1502 1492 1489 1486 1479 1472 1466 1478 1477 1482 1482 1481 1478 1474 1468
1548 1544 1541 1541 1540 1539 1537 1536 1540 1534 1515 1535 1539 1539 1538 1539 1540 1539 1539 1537 1535 1532 1528 1529 1531 1530 1529 1522 1516 1513 1495 1485 1482 1479 1474 1472 1472 1482 1486 1490 1484 1482 1479 1474 1468
1544 1541 1541 1540 1540 1539 1537 1537 1537 1521 1531 1531 1534 1537 1537 1537 1538 1540 1541 1543 1538 1529 1520 1519 1525 1528 1530 1519 1513 1514 1497 1476 1472 1468 1461 1472 1467 1484 1490 1490 1485 1482 1478 1473 1468
1541 1537 1536 1536 1538 1537 1538 1538 1525 1526 1526 1536 1537 1535 1532 1538 1538 1539 1538 1536 1543 1543 1532 1524 1507 1529 1532 1531 1531 1521 1523 1520 1514 1483 1479 1468 1475 1480 1490 1488 1486 1483 1479 1474 1468
1539 1537 1534 1533 1534 1536 1539 1527 1518 1528 1534 1533 1533 1528 1526 1536 1540 1537 1541 1540 1547 1545 1538 1530 1513 1529 1532 1532 1530 1524 1527 1538 1529 1499 1498 1474 1482 1486 1486 1486 1484 1481 1477 1472 1467
1538 1534 1533 1534 1533 1535 1535 1524 1531 1537 1537 1536 1528 1533 1524 1527 1533 1532 1536 1543 1544 1547 1546 1544 1536 1525 1529 1533 1533 1531 1536 1526 1521 1509 1497 1473 1471 1466 1485 1484 1482 1479 1476 1472 1467
1536 1534 1534 1534 1533 1535 1527 1528 1535 1538 1538 1538 1533 1531 1531 1534 1539 1536 1537 1541 1542 1545 1545 1545 1550 1521 1527 1528 1530 1528 1526 1528 1534 1524 1514 1493 1468 1484 1486 1486 1484 1480 1477 1473 1467
1535 1534 1532 1533 1536 1531 1527 1534 1537 1537 1539 1539 1539 1536 1534 1537 1536 1536 1535 1537 1542 1542 1538 1541 1542 1530 1519 1538 1538 1537 1531 1532 1524 1517 1516 1523 1497 1485 1486 1487 1483 1479 1477 1473 1468
1536 1534 1533 1533 1528 1528 1536 1537 1537 1538 1538 1539 1538 1538 1539 1538 1538 1533 1536 1539 1541 1542 1540 1540 1533 1521 1513 1536 1537 1535 1535 1539 1538 1538 1521 1515 1478 1485 1485 1482 1480 1478 1476 1472 1468
1538 1535 1534 1532 1532 1532 1533 1533 1535 1538 1537 1538 1538 1539 1540 1538 1537 1535 1535 1538 1540 1541 1543 1543 1533 1524 1505 1497 1509 1510 1527 1536 1534 1525 1505 1504 1488 1481 1482 1482 1479 1477 1475 1472 1469
1541 1538 1536 1529 1531 1532 1534 1531 1531 1533 1536 1537 1536 1535 1535 1534 1531 1533 1533 1535 1539 1540 1541 1540 1533 1520 1516 1510 1507 1505 1505 1512 1531 1517 1514 1488 1496 1484 1483 1482 1479 1477 1475 1472 1469
1543 1543 1539 1535 1533 1532 1532 1528 1527 1529 1531 1533 1534 1529 1532 1533 1528 1530 1530 1533 1529 1539 1538 1539 1528 1522 1510 1497 1504 1501 1497 1497 1503 1515 1511 1504 1499 1484 1480 1480 1478 1475 1473 1471 1469
1543 1541 1542 1533 1532 1531 1526 1524 1526 1527 1527 1528 1529 1530 1529 1528 1529 1529 1529 1530 1530 1531 1533 1534 1531 1522 1500 1499 1497 1485 1476 1481 1485 1489 1496 1492 1473 1474 1475 1475 1474 1473 1472 1470 1469